Dewpoint
63 64 64 63 63 65 66 68 69 68 69 68 69 69 69 70 71 72 73 72 70 70 72 72 73 72 72 71 71 70 69 70 71 69 69 69 70 70 71 71 71 72 70
62 64 63 63 64 65 67 68 67 69 69 69 68 69 69 70 70 71 72 72 72 72 72 72 71 71 70 66 69 70 70 70 70 69 67 65 64 67 69 69 69 70 72
62 63 62 63 62 63 65 68 68 69 69 70 72 71 71 71 69 70 70 69 68 67 69 72 72 71 69 66 69 71 70 68 69 70 68 64 61 65 65 68 69 71 71
63 63 61 62 62 62 65 67 70 69 70 71 71 69 67 68 69 69 68 68 68 66 70 72 73 72 72 70 71 71 71 70 69 69 72 69 68 64 63 65 69 70 71
61 64 62 62 64 66 65 66 70 69 70 72 71 70 69 70 69 69 67 67 72 72 72 73 72 72 73 72 72 72 71 71 69 69 69 69 69 68 66 64 65 66 68
59 63 63 64 66 66 64 65 70 71 72 72 72 70 69 70 69 69 69 70 71 72 73 73 72 73 73 73 73 72 72 71 71 71 70 69 68 66 66 65 65 65 67
60 60 64 66 67 66 65 72 72 72 72 72 72 71 70 69 70 70 70 71 71 70 70 71 71 71 71 71 72 72 71 71 71 70 70 70 70 70 67 67 67 67 67
61 63 65 66 67 66 70 72 71 70 71 71 70 71 71 70 70 69 68 68 68 67 66 66 67 67 67 67 69 70 71 70 70 70 70 70 70 70 70 68 66 66 66
68 67 67 69 70 71 71 71 71 70 71 71 70 69 68 67 65 65 65 64 63 63 63 63 63 64 64 65 66 67 67 67 67 69 70 70 70 71 70 70 68 67 64
67 68 69 70 71 71 71 71 71 69 69 65 62 60 58 62 60 61 60 61 62 61 62 62 62 62 63 63 63 63 64 64 65 67 67 68 69 69 70 70 69 69 67
66 67 67 69 70 69 70 68 65 61 59 58 58 56 58 59 61 61 61 61 61 61 61 62 61 62 61 62 61 62 63 63 63 63 63 63 64 66 67 69 69 69 68
66 66 66 66 67 66 62 60 57 56 56 58 59 59 60 61 61 61 61 61 61 61 62 61 61 61 62 62 61 60 61 60 60 60 60 60 62 62 64 67 66 68 68
62 61 62 60 57 56 55 55 55 55 57 58 58 59 59 60 60 60 60 60 61 61 62 61 61 61 60 60 60 59 59 59 60 60 60 60 60 60 61 64 63 66 68
58 58 55 54 54 55 55 56 55 55 57 58 58 59 59 60 59 59 59 59 60 60 60 61 61 61 60 60 59 59 58 58 58 60 61 61 61 60 61 62 62 65 65
55 53 54 56 57 56 56 57 56 56 57 59 58 59 60 59 58 58 57 57 58 59 58 58 59 58 60 60 59 57 57 56 58 59 60 61 63 66 65 63 63 63 64
53 52 57 57 57 57 57 57 56 56 57 58 59 59 59 58 58 57 56 56 56 56 57 57 57 57 60 60 60 58 57 57 58 59 61 62 62 62 63 64 64 65 62
51 54 57 57 58 59 58 58 56 57 57 58 59 59 58 57 57 56 55 55 56 55 58 60 60 61 59 59 59 59 56 58 58 58 59 61 59 59 59 60 62 63 64
52 56 58 59 60 60 60 59 57 57 57 58 59 57 57 56 56 55 54 55 56 56 57 58 60 58 58 58 57 57 55 56 55 57 61 59 58 58 58 58 60 61 61
53 57 58 60 62 62 60 57 57 56 56 57 57 56 56 56 55 55 54 55 54 54 54 57 57 58 57 57 55 54 54 53 53 55 59 59 59 58 58 58 58 58 59
58 59 61 62 62 60 58 57 57 56 56 57 57 57 56 55 55 55 55 55 54 55 56 57 57 59 58 54 53 53 52 51 52 54 57 58 57 56 55 57 56 56 58
62 63 63 62 61 60 59 58 58 56 57 57 57 56 56 55 56 56 56 55 54 55 55 55 56 56 52 52 52 51 48 50 51 54 55 56 56 54 55 56 56 55 57
63 63 61 60 61 60 60 58 56 57 57 57 56 56 56 56 56 54 54 54 54 54 52 51 52 51 48 48 48 48 50 53 50 52 53 54 54 53 54 54 55 55 56
63 62 61 60 60 60 59 56 58 56 56 56 55 55 56 56 56 54 53 54 54 54 47 48 48 50 52 46 46 45 47 50 50 50 51 52 53 53 54 55 55 54 51
61 60 59 58 56 56 56 57 56 55 54 54 53 55 55 55 55 56 56 55 54 48 45 43 42 40 45 47 42 38 41 45 46 46 47 52 54 55 55 53 53 54 53
59 59 58 56 55 52 56 56 55 54 53 53 53 53 54 54 55 55 56 54 55 49 47 44 41 39 38 41 42 40 40 42 43 44 49 49 49 49 47 47 46 50 48
58 58 56 56 56 54 52 54 53 52 51 51 51 52 52 51 53 52 53 50 50 50 46 44 42 43 43 44 42 41 41 42 43 43 45 47 47 47 46 46 44 45 46
Lifted_Index
-2 -1 -1 -1 -1 -1 -1 -1 -2 -3 -4 -4 -3 -3 -4 -4 -4 -4 -4 -4 -3 -3 -3 -3 -3 -3 -3 -3 -3 -3 -3 -3 -3 -4 -4 -3 -3 -3 -3 -3 -3 -4 -4
-2 -2 -2 -1 -1 -1 -2 -2 -3 -3 -4 -4 -4 -4 -4 -4 -4 -4 -4 -4 -3 -3 -3 -4 -4 -4 -3 -3 -3 -3 -3 -3 -3 -3 -3 -3 -2 -2 -2 -3 -3 -3 -4
-3 -3 -2 -2 -1 -1 -2 -3 -4 -4 -4 -4 -5 -5 -5 -5 -4 -4 -4 -3 -2 -2 -3 -4 -4 -4 -3 -3 -3 -3 -3 -3 -3 -3 -3 -3 -2 -2 -2 -3 -3 -3 -4
-3 -4 -4 -3 -2 -2 -3 -4 -5 -5 -5 -5 -6 -6 -5 -5 -4 -3 -3 -2 -2 -2 -3 -4 -4 -4 -4 -3 -3 -3 -4 -3 -3 -3 -3 -3 -3 -3 -3 -3 -3 -3 -4
-3 -4 -4 -4 -3 -3 -4 -5 -5 -5 -6 -6 -7 -6 -5 -5 -4 -3 -3 -3 -3 -3 -4 -4 -4 -4 -4 -4 -4 -4 -4 -4 -4 -4 -4 -4 -4 -4 -3 -3 -3 -4 -4
-3 -4 -4 -4 -4 -4 -5 -5 -6 -6 -7 -7 -7 -6 -6 -5 -4 -4 -3 -4 -4 -4 -4 -4 -4 -5 -5 -5 -5 -5 -4 -4 -4 -4 -4 -4 -4 -4 -4 -4 -4 -4 -4
-3 -4 -4 -5 -5 -5 -6 -7 -7 -7 -8 -8 -7 -6 -6 -5 -5 -4 -4 -4 -4 -4 -4 -4 -4 -4 -4 -4 -4 -4 -4 -4 -4 -4 -4 -4 -4 -4 -4 -4 -4 -4 -4
-3 -4 -5 -5 -6 -6 -7 -8 -8 -8 -8 -7 -7 -6 -5 -5 -4 -4 -4 -3 -3 -3 -3 -2 -2 -2 -2 -3 -3 -3 -3 -3 -3 -3 -3 -3 -3 -3 -3 -4 -4 -4 -4
-4 -5 -5 -6 -7 -8 -8 -8 -8 -8 -7 -7 -6 -5 -4 -4 -3 -3 -2 -1 -1 -1 -0 1 2 2 1 1 0 -0 -0 -1 -1 -1 -1 -2 -2 -2 -3 -3 -3 -3 -3
-5 -5 -6 -6 -7 -8 -8 -8 -7 -7 -6 -5 -4 -3 -2 -1 0 1 1 2 3 3 3 4 4 4 4 3 3 3 2 2 1 1 1 0 -0 -1 -2 -2 -3 -3 -3
-5 -5 -6 -6 -7 -7 -7 -6 -6 -5 -4 -3 -1 0 1 3 3 4 4 4 5 5 5 5 5 5 4 4 4 4 4 4 4 3 3 2 2 1 0 -1 -2 -2 -2
-5 -5 -5 -5 -5 -5 -5 -4 -3 -2 -1 1 2 3 4 4 5 5 5 5 5 5 5 5 5 5 5 5 5 5 5 5 5 5 5 4 4 3 2 1 -0 -1 -2
-4 -5 -5 -4 -4 -3 -2 -1 1 2 2 3 4 4 5 5 5 5 5 6 5 5 5 5 5 5 5 5 5 6 6 6 7 6 6 5 5 4 4 3 1 0 -0
-4 -4 -4 -3 -2 -1 1 2 3 3 3 4 4 4 5 5 5 5 6 6 6 5 5 5 5 5 6 6 6 7 7 7 6 6 5 5 5 4 4 3 2 1 1
-4 -3 -3 -2 -1 1 2 3 3 4 4 4 4 5 5 5 5 6 7 7 7 6 6 6 6 6 6 7 7 7 7 6 5 5 4 4 4 4 3 3 2 2 1
-4 -3 -3 -2 -0 1 2 3 4 4 4 4 5 5 5 6 6 7 7 7 7 7 7 6 6 6 6 7 7 7 7 6 5 4 4 4 4 3 3 3 3 2 2
-4 -3 -3 -2 -0 1 2 3 4 4 4 5 5 6 6 6 7 7 8 8 8 7 7 6 6 6 6 7 7 7 7 7 6 5 4 4 4 4 4 4 3 3 3
-4 -4 -3 -2 -0 1 1 2 3 3 4 4 5 6 6 7 7 7 7 7 8 8 7 6 5 5 6 6 7 8 8 8 7 6 5 5 5 5 4 4 4 3 3
-4 -4 -4 -2 -1 -0 1 1 1 2 3 4 5 6 7 7 7 7 7 7 8 8 7 6 6 5 5 6 7 8 9 10 9 7 6 6 6 5 5 4 4 4 3
-5 -5 -4 -3 -2 -1 -1 -1 -1 0 2 3 5 6 6 7 7 7 7 7 8 8 7 7 6 6 5 6 7 8 10 11 10 9 8 7 6 5 4 4 4 4 3
-5 -5 -4 -3 -2 -2 -2 -2 -2 -1 1 3 5 6 7 7 7 7 7 7 8 8 8 8 7 7 6 7 8 10 11 12 11 10 9 8 6 5 5 4 4 3 3
-4 -4 -4 -3 -3 -3 -3 -3 -2 0 2 4 5 6 6 7 7 7 7 7 7 8 9 9 9 8 8 9 10 12 13 12 11 10 9 8 7 6 5 4 4 3 3
-3 -3 -3 -3 -3 -3 -3 -2 -1 2 4 5 5 6 6 6 7 7 7 7 7 8 10 11 11 11 11 11 13 15 15 13 11 9 9 8 7 6 5 4 4 3 3
-4 -4 -4 -4 -3 -3 -2 -1 1 3 5 5 6 6 6 6 6 6 7 7 7 8 10 11 12 13 13 14 15 16 15 12 10 9 9 8 7 6 5 5 4 4 4
-4 -4 -3 -3 -2 -1 -0 1 3 4 5 6 6 6 6 6 6 6 7 7 7 8 9 10 12 13 13 15 16 16 14 12 11 10 9 9 8 7 7 6 6 6 6
-4 -4 -3 -2 -2 -1 1 2 3 5 6 6 7 7 7 7 7 7 7 7 7 8 9 10 11 12 13 14 16 16 14 12 11 10 9 9 8 8 8 8 8 8 8